Hourly Data Report for October 13, 2013

All times are specified in Local Standard Time (LST). Add 1 hour to adjust for Daylight Saving Time where and when it is observed.

PENTICTON A
BRITISH COLUMBIA

49°27'45.000" N
119°36'08.000" W
344.40 m
1126146
71889
YYF

Download Data

Hourly Data (October 2013)
Hourly Data Report for October 13, 2013
Temp Definition
°C
Dew Point Temp Definition
°C
Rel Hum Definition
%
Wind Dir Definition
10's deg

Wind Spd Definition
km/h
Visibility Definition
km
Stn Press Definition
kPa
Hmdx Definition


Wind Chill Definition


Weather Definition


TIME
00:00 Legend Double Dagger 6.4 1.5 71 33 10 24.1 98.28     LegendNANA
01:00 Legend Double Dagger 5.4 1.9 78 5 6 24.1 98.31     Mostly Cloudy
02:00 Legend Double Dagger 5.7 2.2 78   0 24.1 98.34     LegendNANA
03:00 Legend Double Dagger 5.5 2.5 81 25 2 24.1 98.34     LegendNANA
04:00 Legend Double Dagger 5.5 2.2 79 1 4 24.1 98.37     Mostly Cloudy
05:00 Legend Double Dagger 4.5 -0.1 72 35 10 24.1 98.39     LegendNANA
06:00 Legend Double Dagger 2.9 -1.3 74 2 10 24.1 98.45     LegendNANA
07:00 Legend Double Dagger 4.0 -1.2 69 36 14 24.1 98.50     Clear
08:00 Legend Double Dagger 7.8 0.5 60 36 6 24.1 98.53     LegendNANA
09:00 Legend Double Dagger 9.6 1.3 56 35 8 24.1 98.55     LegendNANA
10:00 Legend Double Dagger 11.3 0.4 47 36 5 24.1 98.53     Mostly Cloudy
11:00 Legend Double Dagger 12.6 1.3 46 2 9 24.1 98.49     LegendNANA
12:00 Legend Double Dagger 13.0 0.5 42 36 10 24.1 98.45     LegendNANA
13:00 Legend Double Dagger 13.9 0.2 39 36 10 24.1 98.40     Mainly Clear
14:00 Legend Double Dagger 13.1 2.4 48 28 10 24.1 98.38     LegendNANA
15:00 Legend Double Dagger 13.9 1.6 43 35 10 24.1 98.37     LegendNANA
16:00 Legend Double Dagger 12.9 2.5 49 30 9 24.1 98.41     Mainly Clear
17:00 Legend Double Dagger 7.8 2.5 69 36 5 24.1 98.44     LegendNANA
18:00 Legend Double Dagger 6.3 -0.2 63 36 9 24.1 98.51     LegendNANA
19:00 Legend Double Dagger 6.2 -0.8 61 36 10 24.1 98.58     Clear
20:00 Legend Double Dagger 6.2 -0.5 62 36 14 24.1 98.62     LegendNANA
21:00 Legend Double Dagger 5.9 -0.8 62 35 14 24.1 98.69     LegendNANA
22:00 Legend Double Dagger 4.1 -1.1 69 35 12 24.1 98.73     Clear
23:00 Legend Double Dagger 4.0 -1.2 69 35 15 24.1 98.77     LegendNANA

Notes on Data Quality.

Legend

  • E = Estimated
  • M = Missing
  • NA = Not Available
  • ‡ = Partner data that is not subject to review by the National Climate Archives
Date modified: